QPF
0.04 0.06 0.07 0.06 0.06 0.08 0.09 0.08 0.07 0.08 0.07 0.06 0.04 0.04 0.05 0.06 0.05 0.05 0.04 0.03 0.04 0.05 0.06 0.08 0.12 0.18 0.25 0.31 0.34 0.34 0.34 0.33 0.30 0.25 0.20 0.17 0.15 0.16 0.14 0.13 0.09 0.06 0.05 0.04
0.02 0.05 0.05 0.03 0.04 0.06 0.07 0.07 0.05 0.05 0.07 0.05 0.05 0.04 0.05 0.05 0.04 0.04 0.04 0.02 0.02 0.03 0.03 0.04 0.06 0.11 0.18 0.22 0.28 0.32 0.37 0.39 0.35 0.29 0.27 0.25 0.25 0.25 0.23 0.20 0.14 0.11 0.09 0.07
0.02 0.03 0.03 0.03 0.05 0.08 0.06 0.04 0.04 0.03 0.04 0.05 0.05 0.05 0.04 0.04 0.02 0.02 0.02 0.02 0.01 0.01 0.01 0.03 0.04 0.06 0.10 0.16 0.21 0.26 0.30 0.39 0.40 0.37 0.36 0.33 0.29 0.25 0.20 0.17 0.16 0.16 0.14 0.10
0.02 0.02 0.03 0.03 0.03 0.06 0.07 0.03 0.03 0.02 0.02 0.04 0.04 0.06 0.04 0.03 0.02 0.01 0.01 0.01 0.01 0.01 0.01 0.01 0.02 0.03 0.04 0.08 0.14 0.19 0.25 0.31 0.39 0.42 0.37 0.33 0.27 0.22 0.18 0.17 0.16 0.15 0.13 0.11
0.01 0.01 0.02 0.02 0.02 0.03 0.05 0.03 0.02 0.02 0.02 0.02 0.02 0.02 0.02 0.02 0.01 0.01 0.00 0.00 0.00 0.00 0.00 0.00 0.01 0.01 0.02 0.03 0.07 0.12 0.18 0.22 0.28 0.37 0.34 0.30 0.25 0.22 0.21 0.19 0.16 0.13 0.10 0.09
0.01 0.01 0.01 0.01 0.01 0.02 0.05 0.04 0.03 0.03 0.04 0.03 0.01 0.00 0.00 0.01 0.01 0.00 0.00 0.00 0.00 0.00 0.00 0.00 0.00 0.01 0.01 0.02 0.03 0.07 0.10 0.15 0.19 0.25 0.29 0.27 0.23 0.21 0.19 0.18 0.17 0.15 0.12 0.11
0.01 0.01 0.01 0.01 0.01 0.01 0.02 0.03 0.06 0.06 0.04 0.02 0.01 0.00 0.00 0.00 0.00 0.00 0.00 0.00 0.00 0.00 0.00 0.00 0.00 0.00 0.01 0.01 0.02 0.04 0.05 0.08 0.12 0.16 0.20 0.22 0.22 0.21 0.18 0.16 0.16 0.15 0.12 0.10
0.02 0.02 0.02 0.02 0.02 0.01 0.01 0.01 0.03 0.03 0.02 0.01 0.01 0.00 0.00 0.00 0.00 0.00 0.00 0.00 0.00 0.00 0.00 0.00 0.00 0.00 0.01 0.01 0.01 0.02 0.05 0.06 0.09 0.13 0.15 0.18 0.20 0.18 0.15 0.13 0.13 0.13 0.11 0.10
0.02 0.02 0.02 0.02 0.01 0.01 0.01 0.01 0.02 0.02 0.01 0.01 0.01 0.00 0.00 0.01 0.01 0.00 0.00 0.00 0.00 0.00 0.00 0.00 0.00 0.00 0.00 0.00 0.01 0.01 0.03 0.04 0.05 0.08 0.12 0.14 0.16 0.14 0.11 0.10 0.09 0.08 0.06 0.05
0.02 0.03 0.03 0.02 0.01 0.01 0.02 0.01 0.02 0.03 0.03 0.01 0.00 0.00 0.01 0.01 0.00 0.00 0.00 0.00 0.00 0.00 0.00 0.00 0.00 0.00 0.00 0.00 0.00 0.01 0.01 0.02 0.03 0.05 0.06 0.08 0.09 0.09 0.09 0.09 0.07 0.05 0.04 0.04
0.02 0.02 0.01 0.01 0.01 0.02 0.02 0.02 0.03 0.03 0.02 0.01 0.01 0.00 0.01 0.01 0.02 0.01 0.01 0.00 0.00 0.00 0.00 0.00 0.00 0.00 0.00 0.00 0.00 0.00 0.01 0.01 0.01 0.02 0.03 0.04 0.05 0.07 0.08 0.08 0.07 0.05 0.04 0.03
0.01 0.01 0.01 0.00 0.01 0.01 0.01 0.02 0.02 0.03 0.02 0.01 0.01 0.00 0.00 0.01 0.02 0.02 0.01 0.00 0.00 0.00 0.00 0.00 0.00 0.00 0.00 0.00 0.00 0.00 0.01 0.01 0.01 0.01 0.01 0.02 0.02 0.03 0.03 0.04 0.05 0.04 0.03 0.02
0.01 0.01 0.01 0.01 0.01 0.01 0.02 0.01 0.02 0.03 0.03 0.02 0.02 0.00 0.00 0.00 0.01 0.01 0.00 0.00 0.00 0.00 0.00 0.00 0.00 0.00 0.00 0.00 0.00 0.00 0.01 0.00 0.00 0.00 0.00 0.01 0.01 0.01 0.01 0.01 0.02 0.02 0.02 0.01
0.01 0.01 0.01 0.00 0.00 0.01 0.01 0.01 0.01 0.03 0.04 0.03 0.01 0.01 0.00 0.01 0.01 0.01 0.01 0.00 0.00 0.00 0.00 0.00 0.00 0.00 0.00 0.00 0.00 0.00 0.00 0.00 0.00 0.00 0.00 0.00 0.00 0.00 0.00 0.00 0.00 0.00 0.01 0.01
0.01 0.01 0.00 0.00 0.00 0.00 0.00 0.00 0.01 0.01 0.01 0.02 0.01 0.01 0.01 0.02 0.02 0.02 0.01 0.01 0.00 0.00 0.00 0.00 0.00 0.00 0.00 0.00 0.00 0.00 0.00 0.00 0.00 0.00 0.00 0.00 0.00 0.00 0.00 0.00 0.00 0.00 0.00 0.00
0.00 0.00 0.00 0.00 0.00 0.00 0.00 0.00 0.00 0.01 0.01 0.01 0.00 0.00 0.01 0.01 0.02 0.02 0.01 0.01 0.01 0.00 0.00 0.00 0.00 0.00 0.00 0.00 0.00 0.00 0.00 0.00 0.00 0.00 0.00 0.00 0.00 0.00 0.00 0.00 0.00 0.00 0.00 0.00
0.00 0.00 0.00 0.00 0.00 0.00 0.00 0.00 0.01 0.01 0.01 0.01 0.01 0.00 0.00 0.01 0.02 0.02 0.01 0.01 0.01 0.01 0.01 0.01 0.01 0.01 0.01 0.01 0.00 0.00 0.00 0.00 0.00 0.00 0.00 0.00 0.00 0.00 0.00 0.00 0.00 0.00 0.00 0.00
0.00 0.00 0.00 0.00 0.01 0.01 0.00 0.00 0.01 0.01 0.02 0.01 0.01 0.00 0.00 0.01 0.01 0.01 0.01 0.01 0.01 0.01 0.01 0.01 0.01 0.01 0.01 0.00 0.00 0.00 0.00 0.01 0.01 0.00 0.00 0.00 0.00 0.01 0.01 0.01 0.01 0.01 0.01 0.00
0.00 0.00 0.00 0.01 0.01 0.00 0.00 0.00 0.00 0.01 0.02 0.01 0.00 0.00 0.00 0.00 0.01 0.02 0.01 0.01 0.01 0.01 0.01 0.01 0.00 0.00 0.00 0.00 0.00 0.00 0.00 0.00 0.01 0.01 0.01 0.01 0.01 0.01 0.02 0.02 0.02 0.02 0.02 0.01
0.00 0.00 0.01 0.01 0.01 0.01 0.00 0.00 0.00 0.00 0.02 0.01 0.00 0.00 0.01 0.01 0.01 0.01 0.01 0.01 0.01 0.01 0.01 0.01 0.01 0.01 0.01 0.00 0.00 0.00 0.00 0.00 0.00 0.00 0.01 0.01 0.01 0.01 0.01 0.01 0.01 0.01 0.01 0.01
0.01 0.01 0.01 0.01 0.02 0.01 0.00 0.00 0.00 0.01 0.01 0.01 0.00 0.01 0.01 0.01 0.01 0.01 0.00 0.00 0.01 0.01 0.01 0.01 0.01 0.01 0.01 0.01 0.01 0.00 0.00 0.00 0.00 0.00 0.00 0.01 0.01 0.01 0.01 0.01 0.01 0.01 0.01 0.01
0.00 0.00 0.00 0.00 0.01 0.01 0.01 0.00 0.00 0.01 0.01 0.00 0.00 0.00 0.01 0.01 0.01 0.01 0.01 0.01 0.00 0.01 0.01 0.01 0.01 0.01 0.01 0.01 0.01 0.01 0.01 0.00 0.00 0.00 0.00 0.00 0.00 0.01 0.01 0.01 0.01 0.01 0.01 0.01
0.00 0.00 0.00 0.00 0.00 0.00 0.00 0.00 0.00 0.00 0.00 0.00 0.00 0.00 0.00 0.00 0.00 0.00 0.00 0.01 0.01 0.01 0.01 0.01 0.01 0.01 0.01 0.01 0.01 0.01 0.01 0.01 0.01 0.00 0.00 0.00 0.00 0.01 0.01 0.01 0.02 0.02 0.02 0.02
0.00 0.00 0.00 0.00 0.00 0.00 0.00 0.00 0.00 0.00 0.00 0.00 0.00 0.00 0.00 0.00 0.00 0.00 0.00 0.00 0.00 0.01 0.01 0.01 0.01 0.01 0.01 0.01 0.02 0.01 0.01 0.01 0.01 0.01 0.01 0.01 0.00 0.00 0.01 0.01 0.01 0.01 0.01 0.01
0.00 0.00 0.00 0.00 0.00 0.00 0.00 0.00 0.00 0.00 0.00 0.00 0.00 0.00 0.00 0.00 0.00 0.00 0.00 0.00 0.00 0.01 0.01 0.01 0.01 0.01 0.01 0.01 0.02 0.02 0.02 0.03 0.03 0.02 0.02 0.01 0.01 0.01 0.01 0.01 0.01 0.01 0.01 0.02
0.00 0.00 0.00 0.00 0.00 0.00 0.00 0.00 0.00 0.00 0.00 0.00 0.00 0.00 0.01 0.01 0.01 0.00 0.00 0.00 0.00 0.01 0.01 0.02 0.02 0.02 0.02 0.02 0.02 0.02 0.02 0.02 0.03 0.03 0.03 0.02 0.02 0.02 0.02 0.02 0.02 0.02 0.02 0.02
MSLP
1014.72 1014.52 1014.15 1013.63 1013.02 1012.40 1011.85 1011.46 1011.27 1011.31 1011.57 1012.00 1012.52 1013.04 1013.48 1013.77 1013.85 1013.73 1013.43 1012.99 1012.49 1011.99 1011.56 1011.26 1011.10 1011.10 1011.25 1011.54 1011.92 1012.39 1012.91 1013.45 1013.99 1014.51 1014.99 1015.41 1015.77 1016.04 1016.25 1016.39 1016.50 1016.60 1016.71 1016.87
1014.08 1013.78 1013.34 1012.79 1012.21 1011.67 1011.24 1010.99 1010.95 1011.12 1011.48 1011.96 1012.50 1013.00 1013.41 1013.65 1013.72 1013.60 1013.33 1012.95 1012.52 1012.08 1011.69 1011.40 1011.21 1011.15 1011.21 1011.40 1011.69 1012.07 1012.54 1013.05 1013.59 1014.12 1014.63 1015.07 1015.44 1015.73 1015.93 1016.07 1016.18 1016.28 1016.40 1016.58
1013.38 1013.01 1012.52 1011.98 1011.44 1010.99 1010.67 1010.55 1010.63 1010.89 1011.30 1011.79 1012.28 1012.72 1013.06 1013.24 1013.27 1013.15 1012.92 1012.61 1012.26 1011.92 1011.61 1011.37 1011.20 1011.12 1011.14 1011.26 1011.48 1011.80 1012.20 1012.68 1013.19 1013.72 1014.22 1014.67 1015.05 1015.35 1015.57 1015.73 1015.85 1015.99 1016.15 1016.36
1012.71 1012.28 1011.77 1011.25 1010.77 1010.40 1010.20 1010.18 1010.35 1010.67 1011.08 1011.53 1011.95 1012.30 1012.53 1012.63 1012.61 1012.48 1012.29 1012.06 1011.81 1011.59 1011.38 1011.22 1011.11 1011.05 1011.06 1011.15 1011.32 1011.58 1011.93 1012.35 1012.83 1013.32 1013.81 1014.24 1014.62 1014.92 1015.16 1015.35 1015.52 1015.71 1015.93 1016.20
1012.13 1011.66 1011.15 1010.66 1010.26 1009.98 1009.88 1009.95 1010.18 1010.52 1010.91 1011.30 1011.62 1011.85 1011.97 1011.98 1011.91 1011.78 1011.62 1011.46 1011.32 1011.20 1011.11 1011.05 1011.01 1010.99 1011.02 1011.09 1011.23 1011.44 1011.74 1012.11 1012.53 1012.97 1013.41 1013.81 1014.17 1014.47 1014.73 1014.97 1015.20 1015.46 1015.76 1016.12
1011.68 1011.20 1010.71 1010.28 1009.95 1009.77 1009.76 1009.91 1010.18 1010.52 1010.88 1011.19 1011.41 1011.53 1011.54 1011.47 1011.34 1011.20 1011.07 1010.97 1010.92 1010.91 1010.92 1010.95 1010.98 1011.01 1011.06 1011.13 1011.25 1011.42 1011.66 1011.96 1012.31 1012.69 1013.07 1013.43 1013.76 1014.06 1014.34 1014.62 1014.92 1015.26 1015.65 1016.09
1011.39 1010.92 1010.48 1010.12 1009.88 1009.80 1009.87 1010.08 1010.39 1010.73 1011.04 1011.27 1011.40 1011.43 1011.35 1011.20 1011.03 1010.88 1010.77 1010.73 1010.75 1010.81 1010.90 1011.00 1011.08 1011.16 1011.22 1011.29 1011.38 1011.51 1011.70 1011.94 1012.22 1012.53 1012.84 1013.15 1013.45 1013.74 1014.04 1014.35 1014.71 1015.13 1015.61 1016.13
1011.23 1010.82 1010.44 1010.17 1010.03 1010.05 1010.20 1010.47 1010.80 1011.13 1011.40 1011.58 1011.64 1011.58 1011.43 1011.24 1011.04 1010.88 1010.79 1010.78 1010.83 1010.95 1011.08 1011.22 1011.34 1011.43 1011.50 1011.56 1011.63 1011.72 1011.86 1012.03 1012.25 1012.49 1012.75 1013.01 1013.28 1013.56 1013.87 1014.22 1014.63 1015.11 1015.65 1016.24
1011.19 1010.86 1010.58 1010.41 1010.38 1010.48 1010.71 1011.03 1011.37 1011.69 1011.93 1012.06 1012.06 1011.95 1011.76 1011.54 1011.33 1011.17 1011.08 1011.09 1011.17 1011.30 1011.45 1011.61 1011.73 1011.83 1011.89 1011.93 1011.97 1012.03 1012.12 1012.25 1012.41 1012.60 1012.81 1013.04 1013.29 1013.56 1013.88 1014.26 1014.70 1015.21 1015.79 1016.41
1011.23 1011.00 1010.84 1010.78 1010.84 1011.03 1011.32 1011.67 1012.02 1012.32 1012.52 1012.61 1012.58 1012.44 1012.23 1011.99 1011.78 1011.63 1011.55 1011.57 1011.65 1011.78 1011.94 1012.08 1012.20 1012.28 1012.33 1012.36 1012.38 1012.41 1012.47 1012.56 1012.69 1012.84 1013.03 1013.23 1013.47 1013.75 1014.08 1014.47 1014.93 1015.45 1016.03 1016.63
1011.33 1011.21 1011.16 1011.21 1011.36 1011.61 1011.93 1012.29 1012.62 1012.89 1013.07 1013.12 1013.06 1012.90 1012.69 1012.47 1012.27 1012.13 1012.07 1012.09 1012.17 1012.30 1012.44 1012.58 1012.68 1012.75 1012.78 1012.80 1012.81 1012.82 1012.87 1012.94 1013.05 1013.19 1013.36 1013.57 1013.81 1014.10 1014.44 1014.83 1015.29 1015.80 1016.35 1016.92
1011.47 1011.47 1011.53 1011.66 1011.87 1012.15 1012.48 1012.81 1013.10 1013.32 1013.45 1013.47 1013.39 1013.23 1013.03 1012.83 1012.66 1012.55 1012.51 1012.54 1012.63 1012.76 1012.89 1013.02 1013.11 1013.17 1013.20 1013.21 1013.21 1013.23 1013.26 1013.33 1013.43 1013.57 1013.75 1013.97 1014.23 1014.54 1014.90 1015.30 1015.75 1016.24 1016.74 1017.25
1011.66 1011.77 1011.91 1012.10 1012.33 1012.61 1012.89 1013.17 1013.40 1013.56 1013.63 1013.62 1013.52 1013.37 1013.19 1013.03 1012.90 1012.82 1012.82 1012.87 1012.97 1013.11 1013.24 1013.36 1013.45 1013.51 1013.55 1013.56 1013.56 1013.58 1013.61 1013.68 1013.79 1013.94 1014.13 1014.38 1014.67 1015.00 1015.38 1015.80 1016.25 1016.71 1017.17 1017.61
1011.95 1012.13 1012.31 1012.52 1012.74 1012.97 1013.19 1013.38 1013.52 1013.61 1013.62 1013.57 1013.47 1013.33 1013.19 1013.07 1012.99 1012.96 1012.99 1013.08 1013.20 1013.34 1013.48 1013.61 1013.71 1013.77 1013.81 1013.83 1013.83 1013.85 1013.89 1013.95 1014.06 1014.22 1014.43 1014.70 1015.02 1015.39 1015.81 1016.25 1016.71 1017.16 1017.58 1017.97
1012.37 1012.58 1012.77 1012.95 1013.11 1013.26 1013.38 1013.47 1013.52 1013.52 1013.48 1013.41 1013.31 1013.20 1013.10 1013.03 1013.00 1013.03 1013.10 1013.21 1013.35 1013.50 1013.65 1013.78 1013.88 1013.95 1013.99 1014.00 1014.01 1014.02 1014.04 1014.10 1014.20 1014.36 1014.58 1014.87 1015.22 1015.64 1016.09 1016.58 1017.06 1017.52 1017.94 1018.30
1012.92 1013.12 1013.28 1013.40 1013.48 1013.52 1013.54 1013.52 1013.47 1013.41 1013.33 1013.24 1013.15 1013.08 1013.04 1013.03 1013.05 1013.12 1013.22 1013.34 1013.49 1013.64 1013.77 1013.89 1013.99 1014.05 1014.08 1014.08 1014.07 1014.07 1014.07 1014.10 1014.19 1014.33 1014.55 1014.85 1015.23 1015.69 1016.19 1016.72 1017.25 1017.75 1018.19 1018.56
1013.60 1013.77 1013.87 1013.90 1013.88 1013.81 1013.71 1013.59 1013.47 1013.36 1013.26 1013.18 1013.13 1013.11 1013.11 1013.15 1013.22 1013.31 1013.42 1013.54 1013.67 1013.79 1013.89 1013.98 1014.04 1014.08 1014.08 1014.07 1014.03 1013.99 1013.96 1013.96 1014.01 1014.13 1014.34 1014.64 1015.04 1015.53 1016.08 1016.66 1017.25 1017.80 1018.29 1018.69
1014.35 1014.47 1014.49 1014.43 1014.30 1014.13 1013.94 1013.75 1013.58 1013.45 1013.36 1013.31 1013.31 1013.34 1013.40 1013.48 1013.57 1013.66 1013.75 1013.83 1013.90 1013.96 1014.01 1014.04 1014.05 1014.04 1014.00 1013.94 1013.87 1013.79 1013.72 1013.68 1013.69 1013.78 1013.97 1014.26 1014.67 1015.18 1015.76 1016.40 1017.04 1017.65 1018.20 1018.66
1015.11 1015.15 1015.10 1014.95 1014.74 1014.49 1014.24 1014.01 1013.83 1013.71 1013.65 1013.65 1013.71 1013.79 1013.90 1014.00 1014.08 1014.14 1014.18 1014.19 1014.17 1014.14 1014.10 1014.05 1013.99 1013.91 1013.83 1013.73 1013.62 1013.50 1013.39 1013.31 1013.29 1013.35 1013.51 1013.78 1014.18 1014.69 1015.30 1015.96 1016.65 1017.31 1017.91 1018.43
1015.76 1015.74 1015.62 1015.41 1015.15 1014.85 1014.58 1014.35 1014.19 1014.11 1014.11 1014.17 1014.28 1014.41 1014.54 1014.64 1014.69 1014.69 1014.64 1014.54 1014.42 1014.27 1014.13 1013.98 1013.84 1013.70 1013.57 1013.43 1013.29 1013.15 1013.02 1012.91 1012.86 1012.89 1013.02 1013.27 1013.65 1014.14 1014.75 1015.42 1016.12 1016.81 1017.45 1018.01
1016.23 1016.17 1016.00 1015.76 1015.47 1015.17 1014.91 1014.72 1014.62 1014.60 1014.67 1014.79 1014.95 1015.11 1015.23 1015.30 1015.29 1015.20 1015.05 1014.83 1014.58 1014.31 1014.05 1013.81 1013.59 1013.40 1013.23 1013.07 1012.92 1012.77 1012.64 1012.53 1012.47 1012.48 1012.58 1012.80 1013.14 1013.60 1014.18 1014.82 1015.51 1016.20 1016.85 1017.43
1016.47 1016.38 1016.19 1015.94 1015.67 1015.41 1015.21 1015.08 1015.05 1015.11 1015.25 1015.43 1015.62 1015.78 1015.88 1015.89 1015.80 1015.61 1015.33 1014.99 1014.61 1014.23 1013.86 1013.54 1013.26 1013.03 1012.84 1012.68 1012.54 1012.41 1012.30 1012.20 1012.14 1012.14 1012.23 1012.42 1012.71 1013.13 1013.65 1014.24 1014.88 1015.53 1016.16 1016.73
1016.46 1016.35 1016.17 1015.95 1015.73 1015.54 1015.42 1015.39 1015.44 1015.58 1015.78 1016.00 1016.20 1016.35 1016.40 1016.34 1016.15 1015.85 1015.45 1014.99 1014.50 1014.02 1013.57 1013.19 1012.87 1012.63 1012.44 1012.30 1012.19 1012.09 1012.01 1011.95 1011.91 1011.91 1011.98 1012.14 1012.39 1012.74 1013.19 1013.71 1014.28 1014.87 1015.44 1015.98
1016.23 1016.13 1015.98 1015.81 1015.66 1015.57 1015.55 1015.62 1015.77 1015.99 1016.23 1016.47 1016.67 1016.77 1016.76 1016.62 1016.33 1015.92 1015.42 1014.86 1014.28 1013.72 1013.22 1012.80 1012.47 1012.23 1012.06 1011.95 1011.88 1011.83 1011.79 1011.77 1011.75 1011.77 1011.83 1011.96 1012.16 1012.45 1012.81 1013.25 1013.73 1014.24 1014.75 1015.23
1015.85 1015.75 1015.64 1015.55 1015.51 1015.52 1015.62 1015.79 1016.03 1016.30 1016.58 1016.83 1016.99 1017.05 1016.97 1016.73 1016.36 1015.86 1015.27 1014.64 1014.00 1013.40 1012.88 1012.44 1012.12 1011.89 1011.75 1011.67 1011.64 1011.64 1011.64 1011.64 1011.65 1011.68 1011.74 1011.84 1011.99 1012.22 1012.51 1012.85 1013.25 1013.67 1014.10 1014.53
1015.38 1015.30 1015.25 1015.24 1015.30 1015.43 1015.64 1015.91 1016.22 1016.55 1016.84 1017.07 1017.20 1017.20 1017.05 1016.74 1016.29 1015.72 1015.08 1014.41 1013.74 1013.13 1012.60 1012.17 1011.86 1011.65 1011.53 1011.48 1011.48 1011.50 1011.53 1011.55 1011.58 1011.61 1011.66 1011.74 1011.86 1012.02 1012.24 1012.51 1012.83 1013.16 1013.52 1013.88
Thickness
5485 5481 5482 5486 5489 5495 5499 5502 5506 5515 5528 5534 5540 5549 5561 5570 5576 5584 5592 5601 5610 5619 5628 5634 5638 5644 5648 5652 5656 5659 5661 5664 5665 5664 5664 5664 5665 5666 5667 5667 5667 5667 5666 5665
5480 5481 5487 5492 5495 5497 5499 5502 5507 5516 5527 5533 5535 5544 5557 5565 5573 5581 5589 5597 5605 5614 5622 5629 5634 5638 5643 5647 5650 5653 5656 5659 5662 5663 5663 5662 5662 5662 5662 5662 5661 5661 5660 5659
5481 5486 5494 5496 5496 5497 5501 5504 5509 5515 5522 5529 5534 5540 5552 5563 5571 5580 5587 5595 5602 5609 5617 5623 5629 5633 5638 5643 5646 5650 5653 5655 5657 5657 5655 5655 5654 5653 5653 5653 5654 5655 5654 5653
5485 5491 5496 5497 5498 5502 5503 5511 5515 5518 5517 5517 5529 5529 5546 5556 5566 5576 5583 5590 5598 5606 5614 5620 5626 5630 5634 5639 5643 5646 5650 5651 5652 5652 5650 5651 5650 5649 5650 5649 5648 5647 5647 5646
5487 5492 5495 5498 5502 5505 5505 5512 5514 5517 5516 5515 5522 5525 5539 5551 5561 5572 5580 5588 5596 5604 5610 5617 5622 5627 5631 5634 5637 5641 5643 5645 5646 5646 5647 5647 5646 5646 5645 5643 5641 5639 5638 5637
5492 5495 5497 5500 5506 5508 5508 5510 5511 5509 5509 5511 5521 5524 5535 5545 5561 5570 5579 5586 5593 5599 5605 5611 5617 5621 5624 5626 5629 5633 5636 5638 5640 5641 5641 5641 5641 5639 5638 5635 5633 5631 5629 5627
5491 5496 5499 5503 5506 5508 5508 5502 5497 5499 5497 5507 5519 5524 5535 5552 5560 5567 5575 5581 5587 5593 5597 5602 5607 5612 5616 5618 5621 5624 5627 5630 5632 5634 5634 5635 5635 5634 5633 5630 5627 5624 5620 5618
5488 5487 5497 5502 5504 5505 5505 5504 5498 5501 5501 5505 5518 5523 5537 5551 5556 5562 5567 5573 5579 5584 5588 5594 5599 5603 5607 5611 5613 5616 5618 5621 5623 5625 5626 5626 5626 5625 5624 5622 5620 5617 5613 5610
5489 5492 5501 5503 5506 5508 5505 5499 5503 5496 5497 5503 5513 5523 5538 5550 5551 5554 5559 5565 5569 5574 5579 5584 5589 5593 5597 5601 5604 5607 5610 5612 5614 5615 5616 5616 5616 5615 5614 5613 5610 5607 5604 5600
5495 5492 5497 5502 5508 5506 5505 5502 5496 5495 5499 5504 5510 5517 5525 5538 5542 5547 5551 5555 5560 5565 5569 5574 5579 5583 5588 5591 5594 5596 5598 5600 5602 5604 5605 5605 5605 5605 5604 5602 5600 5596 5593 5589
5497 5490 5492 5496 5497 5499 5502 5501 5495 5489 5493 5496 5503 5516 5528 5529 5533 5536 5540 5546 5551 5556 5559 5564 5569 5573 5576 5579 5582 5585 5586 5588 5590 5592 5592 5593 5592 5592 5591 5589 5587 5584 5582 5579
5495 5486 5483 5489 5495 5498 5500 5499 5495 5493 5489 5483 5486 5507 5526 5524 5526 5529 5533 5539 5543 5547 5550 5554 5558 5562 5565 5568 5570 5573 5575 5577 5578 5579 5580 5580 5579 5578 5577 5576 5574 5572 5569 5567
5498 5488 5479 5482 5489 5493 5496 5498 5496 5490 5485 5480 5488 5507 5523 5520 5523 5525 5528 5531 5534 5538 5541 5544 5547 5550 5552 5555 5557 5560 5563 5565 5566 5567 5567 5567 5566 5566 5564 5563 5561 5559 5557 5554
5499 5486 5480 5482 5487 5489 5491 5495 5494 5490 5483 5485 5490 5502 5514 5516 5516 5518 5519 5522 5524 5528 5531 5534 5536 5538 5540 5542 5545 5548 5550 5552 5554 5555 5555 5554 5554 5553 5553 5551 5549 5547 5545 5542
5495 5485 5485 5485 5488 5489 5490 5492 5492 5489 5489 5486 5494 5498 5507 5508 5509 5510 5511 5514 5517 5519 5521 5523 5524 5526 5528 5531 5533 5536 5538 5540 5542 5543 5543 5542 5541 5541 5539 5538 5536 5534 5532 5530
5488 5486 5485 5484 5487 5487 5487 5489 5489 5489 5489 5489 5491 5495 5500 5501 5502 5502 5502 5505 5506 5507 5509 5511 5513 5514 5516 5518 5521 5524 5526 5528 5530 5531 5531 5530 5529 5528 5527 5525 5524 5521 5519 5517
5482 5483 5481 5476 5479 5487 5483 5489 5490 5489 5487 5488 5489 5492 5494 5495 5496 5494 5494 5495 5495 5496 5498 5499 5500 5501 5504 5506 5509 5512 5514 5516 5517 5519 5519 5519 5518 5516 5515 5514 5512 5510 5508 5505
5480 5477 5472 5472 5477 5476 5487 5492 5491 5488 5487 5486 5488 5488 5487 5487 5487 5485 5484 5484 5485 5487 5488 5489 5489 5491 5494 5496 5498 5500 5503 5505 5506 5507 5507 5507 5507 5505 5504 5502 5501 5499 5497 5494
5481 5479 5470 5466 5468 5473 5486 5490 5487 5485 5487 5482 5481 5481 5480 5480 5481 5478 5477 5476 5474 5475 5476 5477 5479 5481 5484 5486 5488 5489 5491 5493 5494 5495 5496 5496 5496 5495 5494 5492 5491 5489 5486 5484
5477 5475 5469 5465 5471 5474 5487 5489 5485 5485 5482 5478 5475 5473 5471 5472 5469 5469 5468 5465 5465 5466 5466 5467 5469 5471 5473 5475 5476 5478 5479 5481 5483 5484 5485 5485 5486 5486 5485 5484 5482 5479 5478 5475
5477 5472 5467 5465 5467 5472 5482 5481 5482 5475 5478 5472 5468 5465 5462 5459 5456 5456 5456 5455 5455 5455 5457 5458 5459 5461 5462 5464 5465 5467 5468 5470 5472 5473 5474 5475 5475 5476 5475 5474 5472 5470 5468 5466
5475 5468 5467 5464 5464 5472 5482 5477 5474 5472 5467 5464 5461 5458 5454 5450 5448 5447 5446 5445 5445 5446 5447 5447 5448 5449 5451 5452 5454 5455 5457 5459 5461 5462 5463 5464 5464 5465 5465 5463 5461 5460 5458 5456
5473 5476 5473 5474 5480 5480 5476 5474 5469 5464 5460 5457 5452 5449 5445 5442 5439 5438 5436 5435 5435 5435 5436 5436 5437 5439 5440 5440 5442 5443 5445 5447 5449 5451 5451 5452 5453 5454 5454 5453 5452 5449 5448 5447
5475 5475 5472 5471 5475 5474 5471 5466 5463 5459 5455 5450 5446 5441 5438 5434 5431 5428 5426 5426 5425 5425 5425 5426 5426 5428 5429 5430 5431 5432 5434 5436 5437 5439 5439 5440 5441 5442 5442 5443 5442 5441 5440 5440
5479 5472 5471 5472 5474 5470 5467 5462 5458 5453 5448 5444 5439 5435 5431 5427 5423 5420 5417 5416 5416 5416 5416 5415 5415 5416 5418 5419 5420 5422 5424 5425 5426 5428 5428 5429 5430 5431 5432 5433 5433 5434 5435 5434
5474 5475 5474 5478 5476 5469 5465 5460 5453 5447 5443 5438 5433 5429 5424 5420 5416 5413 5410 5408 5407 5406 5406 5406 5405 5406 5407 5408 5410 5411 5413 5415 5416 5418 5418 5419 5420 5422 5423 5423 5424 5425 5425 5426